When you browse on this site, cookies collect data to enhance your experience and personalize the content and advertising you see.
Visit our Privacy Policy to learn more. By continuing to use the site, you agree to this use of cookies and data.
  • In Österreich
  • Länderverzeichnis
  • Für 7 Tage
  • Wassertemperatur
  • Satellitenkarten
  • Wetterkarte
  • News
  • Widgets
  • user-avatar
    Anmelden

    Stündliche Wetter Klagenfurt

    Heute, 26 Mai, Sonntag

    Zeit Temperatur Niederschläge Wind Luftdruck Luftfeuchtigkeit
    00:00 +10°C° 0 mm 1 m/S 689 mmHg 94%
    01:00 +10°C° 0 mm 1 m/S 689 mmHg 94%
    02:00 +9°C° 0 mm 1 m/S 689 mmHg 94%
    03:00 +9°C° 0 mm 1 m/S 689 mmHg 94%
    04:00 +9°C° 0 mm 1 m/S 689 mmHg 94%
    05:00 +11°C° 0 mm 1 m/S 689 mmHg 92%
    06:00 +12°C° 0 mm 1 m/S 689 mmHg 89%
    07:00 +13°C° 0 mm 0 m/S 690 mmHg 85%
    08:00 +15°C° 0 mm 0 m/S 690 mmHg 74%
    09:00 +18°C° 0 mm 0 m/S 690 mmHg 62%
    10:00 +20°C° 0 mm 0 m/S 691 mmHg 51%
    11:00 +22°C° 0.2 mm 1 m/S 691 mmHg 51%
    12:00 +23°C° 0.2 mm 1 m/S 690 mmHg 51%
    13:00 +23°C° 0.2 mm 1 m/S 690 mmHg 51%
    14:00 +22°C° 0.7 mm 1 m/S 690 mmHg 58%
    15:00 +21°C° 0.7 mm 1 m/S 689 mmHg 65%
    16:00 +20°C° 0.7 mm 1 m/S 689 mmHg 72%
    17:00 +18°C° 0.3 mm 1 m/S 689 mmHg 77%
    18:00 +16°C° 0.3 mm 1 m/S 688 mmHg 83%
    19:00 +15°C° 0.3 mm 1 m/S 688 mmHg 88%
    20:00 +14°C° 0 mm 1 m/S 688 mmHg 90%
    21:00 +13°C° 0 mm 1 m/S 688 mmHg 92%
    22:00 +11°C° 0 mm 0 m/S 688 mmHg 95%
    23:00 +11°C° 0.1 mm 0 m/S 688 mmHg 95%

    Morgen, 27 Mai, Montag

    Zeit Temperatur Niederschläge Wind Luftdruck Luftfeuchtigkeit
    00:00 +11°C° 0.1 mm 0 m/S 688 mmHg 95%
    01:00 +11°C° 0.1 mm 0 m/S 688 mmHg 95%
    02:00 +11°C° 0.3 mm 0 m/S 687 mmHg 95%
    03:00 +11°C° 0.3 mm 0 m/S 687 mmHg 95%
    04:00 +10°C° 0.3 mm 0 m/S 687 mmHg 95%
    05:00 +11°C° 0.5 mm 0 m/S 687 mmHg 93%
    06:00 +12°C° 0.5 mm 0 m/S 687 mmHg 92%
    07:00 +12°C° 0.5 mm 0 m/S 687 mmHg 91%
    08:00 +13°C° 0.1 mm 0 m/S 687 mmHg 86%
    09:00 +14°C° 0.1 mm 0 m/S 687 mmHg 82%
    10:00 +18°C° 0.1 mm 1 m/S 687 mmHg 78%
    11:00 +16°C° 0.5 mm 1 m/S 687 mmHg 81%
    12:00 +16°C° 0.5 mm 1 m/S 687 mmHg 84%
    13:00 +15°C° 0.5 mm 1 m/S 686 mmHg 87%
    14:00 +15°C° 1.2 mm 1 m/S 686 mmHg 89%
    15:00 +14°C° 1.2 mm 1 m/S 686 mmHg 91%
    16:00 +14°C° 1.2 mm 1 m/S 685 mmHg 93%
    17:00 +13°C° 1.2 mm 1 m/S 685 mmHg 94%
    18:00 +13°C° 1.2 mm 1 m/S 684 mmHg 96%
    19:00 +11°C° 1.2 mm 0 m/S 684 mmHg 97%
    20:00 +11°C° 0.8 mm 0 m/S 684 mmHg 97%
    21:00 +11°C° 0.8 mm 0 m/S 684 mmHg 98%
    22:00 +10°C° 0.8 mm 0 m/S 684 mmHg 98%
    23:00 +10°C° 0.1 mm 0 m/S 683 mmHg 98%

    übermorgen, 28 Mai, Dienstag

    Zeit Temperatur Niederschläge Wind Luftdruck Luftfeuchtigkeit
    00:00 +10°C° 0.1 mm 0 m/S 683 mmHg 98%
    01:00 +10°C° 0.1 mm 0 m/S 683 mmHg 98%
    02:00 +10°C° 0.2 mm 0 m/S 682 mmHg 98%
    03:00 +10°C° 0.2 mm 0 m/S 682 mmHg 98%
    04:00 +10°C° 0.2 mm 0 m/S 682 mmHg 98%
    05:00 +10°C° 0.4 mm 0 m/S 682 mmHg 97%
    06:00 +11°C° 0.4 mm 0 m/S 682 mmHg 96%
    07:00 +11°C° 0.4 mm 0 m/S 681 mmHg 95%
    08:00 +12°C° 0.6 mm 0 m/S 682 mmHg 92%
    09:00 +12°C° 0.6 mm 0 m/S 682 mmHg 88%
    10:00 +14°C° 0.6 mm 1 m/S 682 mmHg 85%
    11:00 +15°C° 0.6 mm 1 m/S 682 mmHg 82%
    12:00 +16°C° 0.6 mm 1 m/S 682 mmHg 79%
    13:00 +16°C° 0.6 mm 1 m/S 682 mmHg 76%
    14:00 +16°C° 0.7 mm 1 m/S 682 mmHg 78%
    15:00 +16°C° 0.7 mm 1 m/S 682 mmHg 80%
    16:00 +15°C° 0.7 mm 1 m/S 682 mmHg 82%
    17:00 +14°C° 1.6 mm 1 m/S 682 mmHg 86%
    18:00 +13°C° 1.6 mm 1 m/S 682 mmHg 90%
    19:00 +12°C° 1.6 mm 1 m/S 682 mmHg 95%
    20:00 +12°C° 3.1 mm 1 m/S 682 mmHg 95%
    21:00 +11°C° 3.1 mm 1 m/S 683 mmHg 96%
    22:00 +11°C° 3.1 mm 1 m/S 683 mmHg 97%
    23:00 +10°C° 3.6 mm 1 m/S 683 mmHg 97%

    29 Mai, Mittwoch

    Zeit Temperatur Niederschläge Wind Luftdruck Luftfeuchtigkeit
    00:00 +9°C° 3.6 mm 1 m/S 683 mmHg 98%
    01:00 +9°C° 3.6 mm 1 m/S 683 mmHg 98%
    02:00 +8°C° 2.4 mm 1 m/S 683 mmHg 98%
    03:00 +8°C° 2.4 mm 1 m/S 683 mmHg 98%
    04:00 +7°C° 2.4 mm 2 m/S 683 mmHg 98%
    05:00 +7°C° 2.4 mm 2 m/S 684 mmHg 97%
    06:00 +8°C° 2.4 mm 1 m/S 684 mmHg 97%
    07:00 +8°C° 2.4 mm 1 m/S 685 mmHg 97%
    08:00 +8°C° 0.7 mm 1 m/S 685 mmHg 95%
    09:00 +9°C° 0.7 mm 1 m/S 686 mmHg 92%
    10:00 +10°C° 0.7 mm 1 m/S 686 mmHg 90%
    11:00 +10°C° 0.9 mm 1 m/S 687 mmHg 89%
    12:00 +11°C° 0.9 mm 1 m/S 687 mmHg 89%
    13:00 +10°C° 0.9 mm 0 m/S 687 mmHg 88%
    14:00 +12°C° 0.4 mm 1 m/S 688 mmHg 86%
    15:00 +12°C° 0.4 mm 1 m/S 688 mmHg 84%
    16:00 +12°C° 0.4 mm 1 m/S 688 mmHg 82%
    17:00 +12°C° 0.2 mm 1 m/S 688 mmHg 84%
    18:00 +11°C° 0.2 mm 1 m/S 689 mmHg 87%
    19:00 +11°C° 0.2 mm 1 m/S 689 mmHg 89%
    20:00 +10°C° 0.3 mm 1 m/S 689 mmHg 91%
    21:00 +9°C° 0.3 mm 1 m/S 690 mmHg 92%
    22:00 +9°C° 0.3 mm 1 m/S 690 mmHg 94%
    23:00 +8°C° 0.2 mm 1 m/S 690 mmHg 94%

    30 Mai, Donnerstag

    Zeit Temperatur Niederschläge Wind Luftdruck Luftfeuchtigkeit
    00:00 +8°C° 0.2 mm 1 m/S 690 mmHg 94%
    01:00 +8°C° 0.2 mm 1 m/S 690 mmHg 94%
    02:00 +7°C° 0.1 mm 1 m/S 690 mmHg 94%
    03:00 +7°C° 0.1 mm 1 m/S 691 mmHg 94%
    04:00 +7°C° 0.1 mm 1 m/S 691 mmHg 94%
    05:00 +8°C° 0.1 mm 1 m/S 691 mmHg 92%
    06:00 +9°C° 0.1 mm 1 m/S 692 mmHg 91%
    07:00 +10°C° 0.1 mm 1 m/S 692 mmHg 89%
    08:00 +12°C° 0.2 mm 1 m/S 693 mmHg 81%
    09:00 +13°C° 0.2 mm 1 m/S 693 mmHg 73%
    10:00 +15°C° 0.2 mm 1 m/S 694 mmHg 66%
    11:00 +15°C° 0.4 mm 1 m/S 694 mmHg 64%
    12:00 +16°C° 0.4 mm 2 m/S 694 mmHg 62%
    13:00 +16°C° 0.4 mm 2 m/S 694 mmHg 61%
    14:00 +16°C° 0.3 mm 2 m/S 694 mmHg 60%
    15:00 +16°C° 0.3 mm 2 m/S 694 mmHg 59%
    16:00 +16°C° 0.3 mm 2 m/S 694 mmHg 58%
    17:00 +15°C° 0.2 mm 1 m/S 693 mmHg 66%
    18:00 +14°C° 0.2 mm 1 m/S 693 mmHg 74%
    19:00 +12°C° 0.2 mm 1 m/S 693 mmHg 82%
    20:00 +11°C° 0 mm 1 m/S 693 mmHg 85%
    21:00 +8°C° 0 mm 0 m/S 693 mmHg 88%
    22:00 +7°C° 0 mm 0 m/S 694 mmHg 91%
    23:00 +8°C° 0 mm 1 m/S 693 mmHg 90%

    31 Mai, Freitag

    Zeit Temperatur Niederschläge Wind Luftdruck Luftfeuchtigkeit
    00:00 +7°C° 0 mm 1 m/S 693 mmHg 90%
    01:00 +7°C° 0 mm 1 m/S 693 mmHg 89%
    02:00 +6°C° 0 mm 1 m/S 693 mmHg 89%
    03:00 +6°C° 0 mm 1 m/S 692 mmHg 88%
    04:00 +6°C° 0 mm 1 m/S 692 mmHg 87%
    05:00 +8°C° 0 mm 1 m/S 693 mmHg 81%
    06:00 +10°C° 0 mm 1 m/S 693 mmHg 75%
    07:00 +11°C° 0 mm 0 m/S 693 mmHg 69%
    08:00 +14°C° 0 mm 0 m/S 694 mmHg 62%
    09:00 +17°C° 0 mm 0 m/S 694 mmHg 55%
    10:00 +19°C° 0 mm 0 m/S 694 mmHg 48%
    11:00 +19°C° 0.1 mm 0 m/S 694 mmHg 49%
    12:00 +19°C° 0.1 mm 0 m/S 694 mmHg 50%
    13:00 +21°C° 0.1 mm 1 m/S 694 mmHg 52%
    14:00 +21°C° 0.5 mm 1 m/S 693 mmHg 56%
    15:00 +20°C° 0.5 mm 1 m/S 693 mmHg 61%
    16:00 +20°C° 0.5 mm 1 m/S 693 mmHg 65%
    17:00 +18°C° 0.2 mm 1 m/S 693 mmHg 69%
    18:00 +16°C° 0.2 mm 1 m/S 693 mmHg 74%
    19:00 +15°C° 0.2 mm 1 m/S 693 mmHg 78%
    20:00 +14°C° 0.1 mm 1 m/S 693 mmHg 80%
    21:00 +13°C° 0.1 mm 1 m/S 693 mmHg 82%
    22:00 +12°C° 0.1 mm 2 m/S 694 mmHg 84%
    23:00 +10°C° 0.1 mm 2 m/S 694 mmHg 86%
    Mehr zeigen